Snowfall_Accumulation
0.2 1.4 3.8 1.3 0.7 1.1 1.1 1.4 1.6 0.5 0.0 0.1 0.3 0.4 0.3 0.0 0.1 0.1 0.0 0.0 0.0 0.0 0.0 0.0 0.0 0.0 0.0 0.0 0.0 0.0 0.0 0.0 0.0 0.0 0.0 0.0 0.0 0.0 0.0 0.0 0.0 0.0 0.0 0.0
2.1 3.4 1.0 0.4 0.5 1.1 1.3 2.0 1.8 0.6 0.0 0.3 0.3 0.4 0.1 0.0 0.1 0.1 0.1 0.0 0.0 0.0 0.0 0.0 0.0 0.0 0.0 0.0 0.0 0.0 0.0 0.0 0.0 0.0 0.0 0.0 0.0 0.0 0.0 0.0 0.0 0.0 0.0 0.0
4.1 1.6 0.1 0.5 0.8 1.7 1.7 2.2 1.4 1.5 0.3 0.1 0.4 1.0 0.5 0.4 0.1 0.1 0.0 0.0 0.0 0.0 0.0 0.0 0.0 0.0 0.0 0.0 0.0 0.0 0.0 0.0 0.0 0.0 0.0 0.0 0.0 0.0 0.0 0.0 0.0 0.0 0.0 0.0
1.5 0.5 0.2 0.9 0.9 1.5 2.6 0.4 0.5 0.9 1.8 3.2 1.6 5.2 1.0 0.5 0.4 0.2 0.1 0.0 0.0 0.0 0.0 0.0 0.0 0.0 0.0 0.0 0.0 0.0 0.0 0.0 0.0 0.0 0.0 0.0 0.0 0.0 0.0 0.0 0.0 0.0 0.0 0.0
2.9 0.4 0.5 1.9 0.5 0.7 1.3 0.3 0.5 0.8 2.1 3.9 1.5 4.5 2.4 1.1 1.1 0.3 0.4 0.2 0.0 0.0 0.0 0.0 0.0 0.0 0.0 0.0 0.0 0.0 0.0 0.0 0.0 0.0 0.0 0.0 0.0 0.0 0.0 0.0 0.0 0.0 0.0 0.0
0.9 0.1 0.2 0.3 0.1 0.2 0.3 0.2 0.6 1.3 3.6 8.2 2.5 3.9 3.4 2.6 2.0 0.4 0.2 0.2 0.1 0.0 0.0 0.0 0.0 0.0 0.0 0.0 0.0 0.0 0.0 0.0 0.0 0.0 0.0 0.0 0.0 0.0 0.0 0.0 0.0 0.0 0.0 0.0
6.7 1.3 0.3 0.1 1.5 0.8 1.3 7.7 15.0 13.8 12.0 5.6 1.2 2.4 3.2 1.3 0.3 0.4 0.2 0.2 0.2 0.1 0.1 0.0 0.0 0.0 0.0 0.0 0.0 0.0 0.0 0.0 0.0 0.0 0.0 0.0 0.0 0.0 0.0 0.0 0.0 0.0 0.0 0.0
9.8 7.7 1.1 0.3 0.6 1.5 1.7 5.1 11.3 9.7 6.3 2.7 1.5 2.5 2.7 0.3 0.2 0.2 0.2 0.3 0.2 0.1 0.1 0.1 0.0 0.0 0.0 0.0 0.0 0.0 0.0 0.0 0.0 0.0 0.0 0.0 0.0 0.0 0.0 0.0 0.0 0.0 0.0 0.0
7.1 5.9 0.2 0.1 0.2 0.9 2.9 4.4 3.5 7.8 5.6 3.6 2.1 2.0 1.2 0.3 0.3 0.4 0.3 0.2 0.2 0.1 0.1 0.1 0.1 0.0 0.0 0.0 0.0 0.0 0.0 0.0 0.0 0.0 0.0 0.0 0.0 0.0 0.0 0.0 0.0 0.0 0.0 0.0
3.6 7.1 1.7 0.1 0.2 0.3 0.5 1.9 5.9 12.1 9.5 5.1 2.1 1.7 2.6 2.1 1.2 0.8 0.3 0.2 0.2 0.1 0.1 0.1 0.1 0.1 0.0 0.0 0.0 0.0 0.0 0.0 0.0 0.0 0.0 0.0 0.0 0.0 0.0 0.0 0.0 0.0 0.0 0.0
1.3 8.4 5.4 2.1 3.0 3.3 2.9 4.7 7.3 9.3 7.7 6.9 4.2 2.4 1.6 1.5 1.0 0.7 0.2 0.1 0.1 0.1 0.1 0.1 0.1 0.2 0.1 0.0 0.0 0.0 0.0 0.0 0.0 0.0 0.0 0.0 0.0 0.0 0.0 0.0 0.0 0.0 0.0 0.0
1.3 6.9 7.6 3.0 0.3 0.2 1.6 3.5 6.1 11.5 8.4 6.4 5.4 3.0 0.4 0.7 0.4 0.2 0.2 0.1 0.1 0.1 0.1 0.1 0.1 0.1 0.2 0.2 0.1 0.0 0.0 0.0 0.0 0.0 0.0 0.0 0.0 0.0 0.0 0.0 0.0 0.0 0.0 0.0
2.1 9.2 11.1 5.0 2.0 0.5 3.9 2.8 3.1 6.6 11.9 9.6 7.3 3.2 0.3 0.2 0.2 0.1 0.1 0.1 0.1 0.1 0.1 0.1 0.2 0.1 0.2 0.3 0.2 0.1 0.0 0.0 0.0 0.0 0.0 0.0 0.0 0.0 0.0 0.0 0.0 0.0 0.0 0.0
1.4 8.5 8.5 6.6 5.2 5.4 5.4 3.3 3.7 10.3 15.9 8.4 3.8 1.9 0.6 0.4 0.6 0.3 0.2 0.2 0.2 0.1 0.1 0.1 0.1 0.1 0.1 0.2 0.3 0.3 0.2 0.1 0.1 0.1 0.0 0.0 0.0 0.0 0.0 0.0 0.0 0.0 0.0 0.0
1.3 9.1 6.3 2.8 1.3 2.8 4.1 3.7 3.1 7.0 7.7 8.3 3.3 1.6 1.0 0.8 0.7 0.4 0.2 0.2 0.2 0.2 0.1 0.1 0.1 0.1 0.1 0.1 0.2 0.3 0.2 0.1 0.1 0.1 0.0 0.0 0.0 0.0 0.0 0.0 0.0 0.0 0.0 0.0
1.5 5.8 5.4 4.2 0.8 1.4 3.2 1.7 1.5 2.3 2.2 3.6 2.6 1.7 0.5 0.4 0.4 0.3 0.3 0.3 0.2 0.2 0.2 0.1 0.0 0.0 0.1 0.1 0.2 0.3 0.3 0.1 0.1 0.1 0.0 0.0 0.0 0.0 0.0 0.0 0.0 0.0 0.0 0.0
2.3 3.4 9.8 5.9 1.9 3.1 5.5 1.0 1.2 1.6 1.5 2.2 3.3 1.2 0.4 0.3 0.4 0.4 0.4 0.3 0.2 0.1 0.1 0.1 0.0 0.0 0.0 0.0 0.1 0.3 0.3 0.2 0.1 0.1 0.0 0.0 0.0 0.0 0.0 0.0 0.0 0.0 0.1 0.1
1.7 3.7 10.1 7.4 4.9 6.7 1.6 0.3 0.4 0.9 1.3 1.2 0.9 0.7 0.4 0.3 0.3 0.3 0.3 0.3 0.2 0.1 0.1 0.1 0.1 0.1 0.0 0.0 0.1 0.2 0.4 0.3 0.2 0.1 0.2 0.0 0.0 0.0 0.2 0.1 0.4 0.5 0.3 0.4
0.8 2.7 9.3 9.3 6.7 3.7 0.6 0.3 0.4 0.9 1.7 1.0 1.0 0.5 0.4 0.3 0.2 0.2 0.2 0.2 0.2 0.1 0.1 0.0 0.0 0.0 0.0 0.0 0.1 0.1 0.3 0.4 0.3 0.3 0.3 0.2 0.1 0.2 0.3 0.4 0.4 0.7 1.1 1.3
0.9 2.3 8.0 9.8 8.1 3.7 1.6 0.5 0.3 0.7 2.0 1.0 0.6 0.5 0.5 0.4 0.9 0.6 0.3 0.2 0.2 0.1 0.0 0.0 0.0 0.0 0.0 0.1 0.1 0.1 0.6 0.9 0.6 0.4 0.7 0.6 0.5 0.7 1.1 1.1 1.2 1.0 1.1 1.4
2.7 5.5 8.9 8.2 7.6 2.8 1.4 0.5 0.6 2.5 4.8 1.0 0.6 0.6 0.6 1.1 1.0 0.6 0.3 0.2 0.2 0.3 0.1 0.0 0.1 0.1 0.2 0.1 0.2 0.4 0.5 1.1 1.3 1.1 1.0 1.0 1.3 1.2 1.6 1.3 1.0 1.0 1.1 1.0
2.6 4.2 5.0 5.5 7.7 4.5 1.5 1.0 2.1 2.6 1.2 0.7 0.7 0.5 0.5 0.5 0.4 0.3 0.4 0.3 0.3 0.3 0.2 0.2 0.4 0.4 0.3 0.7 1.3 1.6 1.8 2.0 1.7 1.8 2.3 2.2 1.5 1.4 1.5 1.1 1.1 1.1 0.9 0.9
2.5 3.4 3.7 4.2 4.1 2.5 1.5 1.4 1.3 0.9 0.8 0.6 0.5 0.4 0.4 0.5 0.4 0.3 0.3 0.2 0.3 0.2 0.3 0.3 0.4 0.5 0.6 0.8 1.1 1.3 1.7 1.0 1.8 2.3 2.0 1.6 1.1 0.8 0.8 0.7 0.9 0.8 0.7 0.6
2.1 1.8 2.7 3.6 2.9 1.9 1.6 1.1 0.6 0.5 0.6 0.5 0.4 0.4 0.4 0.4 0.3 0.2 0.2 0.3 0.3 0.3 0.3 0.4 0.6 0.6 0.7 0.6 0.7 1.0 1.3 1.1 1.1 1.5 1.4 1.3 1.1 0.7 0.5 0.4 0.4 0.4 0.5 0.5
2.2 2.2 2.8 3.1 2.4 1.9 1.6 1.1 0.8 0.6 0.5 0.4 0.3 0.3 0.3 0.3 0.3 0.3 0.3 0.3 0.3 0.3 0.3 0.3 0.4 0.5 0.6 0.7 0.7 0.8 0.7 0.7 0.9 1.0 0.8 0.7 0.5 0.5 0.5 0.4 0.4 0.4 0.2 0.4
1.7 2.0 2.8 3.1 2.1 2.0 1.8 1.2 0.7 0.6 0.6 0.4 0.4 0.3 0.2 0.2 0.4 0.3 0.2 0.3 0.3 0.4 0.3 0.4 0.4 0.5 0.5 0.6 0.5 0.4 0.3 0.4 0.6 0.7 0.6 0.7 0.8 0.6 0.7 0.5 0.6 0.2 0.1 0.1